www.pogodaiklimat.ru

Погода и климат >> Архив погоды >> Алжир >> Illizi


ПОГОДА в Illizi

  • Прогноз погоды в Illizi
  • Монитор погоды в Illizi
  • Климат города

АРХИВ ПОГОДЫ в Illizi

Время (UTC), дата Ветер
(напр.,м/с)
 
Видим.   Явления Облачность Т
(С)
Тd
(С)
f
(%)
Тe
(С)
Тes
(С)
Комфортность P
(гПа)
Po
(гПа)
Тmin
(С)
Tmax
(С)
R
(мм)
R24
(мм)
S
(см)
18 16.06 С 7 10 км ясно +36.4 +3.9 13 +33 +33 жарко 1008.6 1009.0 +39.2
21 16.06 СВ 4 10 км ясно +32.0 +4.6 18 +30 +30 жарко 1009.2 1009.0
00 17.06 В 3 10 км ясно +29.1 +5.3 22 +28 +28 жарко 1009.4 1009.0
03 17.06 ЮВ 4 10 км ясно +25.9 +7.5 31 +26 +26 жарко 1009.3 1009.0
06 17.06 В 2 10 км ясно +26.4 +5.5 26 +26 +28 жарко 1010.5 1011.0 +25.2
09 17.06 ЮВ 4 10 км ясно +36.5 +5.8 15 +34 +44 очень
жарко
1010.8 1011.0
12 17.06 В 2 10 км ясно +40.0 +6.2 13 +37 +59 опасность
солнечного
удара
1009.8 1010.0
15 17.06 СЗ 3 10 км ясно +41.4 +3.4 10 +38 +46 очень
жарко
1008.1 1008.0
18 17.06 СВ 5 10 км ясно +39.7 +2.9 10 +36 +36 очень
жарко
1007.7 1008.0 +41.6
21 17.06 В 3 10 км ясно +35.0 +8.4 20 +33 +33 жарко 1007.7 1008.0
00 18.06 ЮВ 4 10 км ясно +31.0 +6.5 22 +30 +30 жарко 1006.5 1007.0
03 18.06 ЮВ 4 10 км ясно +29.3 +5.8 23 +28 +28 жарко 1005.0 1005.0
06 18.06 ЮЗ 2 10 км ясно +27.8 +3.9 22 +26 +28 жарко 1006.1 1006.0 +26.4
09 18.06 З 10 10 км ясно +39.4 +0.7 9 +36 +36 очень
жарко
1005.4 1005.0
12 18.06 С 10 10 км ясно +40.8 +1.7 9 +37 +38 очень
жарко
1005.4 1005.0
15 18.06 С 9 10 км ясно +41.0 +1.9 9 +37 +38 очень
жарко
1004.5 1005.0
18 18.06 С 11 10 км ясно +38.8 +0.3 9 +35 +35 очень
жарко
1005.4 1005.0 +42.2
21 18.06 С 7 10 км ясно +35.6 -1.0 10 +32 +32 жарко 1006.5 1007.0
00 19.06 штиль 0 10 км ясно +29.7 +1.0 16 +27 +27 жарко 1006.4 1006.0
03 19.06 С 2 10 км ясно +26.5 +3.6 23 +25 +25 комфорт 1006.5 1007.0
06 19.06 СЗ 4 10 км ясно +26.8 +2.8 21 +25 +27 комфорт 1007.6 1008.0 +23.0
09 19.06 ЮЗ 3 10 км ясно +35.4 +5.8 16 +33 +46 жарко 1007.1 1007.0
12 19.06 СЗ 4 10 км ясно +38.8 +9.1 17 +37 +51 опасность
солнечного
удара
1006.0 1006.0
15 19.06 СЗ 5 10 км 1/1 1380 м
[Cu hum]
+39.0 +5.7 13 +36 +41 очень
жарко
1004.7 1005.0
18 19.06 С 8 10 км ясно +37.1 +5.3 14 +34 +34 очень
жарко
1004.6 1005.0 +39.9
21 19.06 С 5 10 км ясно +32.2 +6.1 20 +30 +30 жарко 1005.4 1005.0
00 20.06 СВ 3 10 км ясно +29.3 +6.7 24 +28 +28 жарко 1005.9 1006.0
03 20.06 В 4 10 км ясно +26.0 +6.1 28 +26 +26 жарко 1006.6 1007.0
06 20.06 В 7 10 км ясно +26.2 +7.4 30 +26 +27 жарко 1008.3 1008.0 +24.6
09 20.06 В 6 10 км ясно +32.0 +10.0 26 +32 +37 жарко 1008.3 1008.0
12 20.06 СВ 6 10 км ясно +35.9 +10.4 21 +35 +43 очень
жарко
1007.2 1007.0
15 20.06 В 6 10 км ясно +37.6 +9.9 19 +36 +40 очень
жарко
1005.3 1005.0
18 20.06 С 7 10 км ясно +35.8 +9.9 21 +35 +35 очень
жарко
1005.7 1006.0 +39.2
21 20.06 С 6 10 км ясно +31.8 +9.1 25 +31 +31 жарко 1008.2 1008.0
00 21.06 СВ 5 10 км ясно +28.0 +7.2 27 +27 +27 жарко 1008.2 1008.0
03 21.06 СВ 3 10 км ясно +25.8 +5.6 27 +25 +25 комфорт 1008.5 1009.0
06 21.06 штиль 0 10 км ясно +24.4 +7.0 33 +25 +27 комфорт 1009.7 1010.0 +24.4
09 21.06 ЮВ 3 10 км ясно +33.6 +10.0 24 +33 +46 жарко 1008.8 1009.0
12 21.06 Ю 3 10 км ясно +37.5 +8.0 17 +36 +53 опасность
солнечного
удара
1006.9 1007.0
15 21.06 СЗ 6 10 км 3/3 1200 м
[Cu med, cong]
+39.2 +8.7 16 +37 +40 очень
жарко
1004.8 1005.0
18 21.06 С 5 10 км 3/3 1200 м
[Cu med, cong]
+35.5 +7.7 18 +34 +34 очень
жарко
1005.5 1006.0 +41.4
21 21.06 С 5 10 км 3/3 1200 м
[Cu med, cong]
+34.0 +7.4 19 +32 +32 жарко 1007.4 1007.0
00 22.06 С 4 10 км 4/4 1200 м
[Cu med, cong]
+31.5 +7.4 22 +30 +30 жарко 1006.9 1007.0
03 22.06 С 7 10 км 3/3 1200 м
[Cu med, cong]
+28.3 +7.2 26 +28 +28 жарко 1006.7 1007.0
06 22.06 З 4 10 км ясно +27.2 +10.3 35 +28 +29 жарко 1009.0 1009.0 +26.2
09 22.06 З 5 7000 м ясно +33.4 +9.7 23 +32 +40 жарко 1008.7 1009.0
12 22.06 С 6 10 км ясно +38.0 +10.9 20 +37 +45 очень
жарко
1007.3 1007.0
15 22.06 СЗ 7 10 км ясно +39.3 +11.9 20 +39 +41 очень
жарко
1005.8 1006.0
18 22.06 СЗ 6 10 км ясно +38.0 +12.0 21 +37 +37 очень
жарко
1005.8 1006.0 +40.0
21 22.06 С 3 10 км ясно +32.4 +6.7 20 +31 +31 жарко 1008.1 1008.0
00 23.06 СЗ 3 10 км ясно +30.0 +2.1 17 +28 +28 жарко 1008.8 1009.0
03 23.06 З 2 10 км ясно +28.3 +0.5 16 +26 +26 жарко 1008.6 1009.0
06 23.06 ЮЗ 2 10 км ясно +25.2 +8.5 35 +26 +28 жарко 1010.1 1010.0 +24.0
09 23.06 штиль 0 10 км ясно +34.4 +10.6 23 +34 +55 опасность
солнечного
удара
1010.7 1011.0
12 23.06 СЗ 5 10 км ясно +37.5 +8.3 17 +36 +47 очень
жарко
1009.0 1009.0
15 23.06 СЗ 6 10 км ясно +39.5 +5.8 13 +37 +40 очень
жарко
1006.9 1007.0

 

Местоположение метеостанции Illizi (Алжир): широта 26.50 долгота 8.42 высота над уровнем моря 544 м.

В архиве по умолчанию представлена погода в Illizi за последнюю неделю. Архивные данные за месяц целиком и за предыдущие месяцы, начиная с января 2011 года, Вы можете получить, выбрав интересующий диапазон дат из раскрывающегося списка и нажав кнопку "Ввод!".


*Определитесь, кто Вы:
робот инопланетянин человек

Внимание! Время в таблицах - всемирное. Для получения местного времени необходимо прибавить поправку, которая в Illizi равна 1 ч.

Смотрите также архив погоды в соседних городах и на ближайших метеорологических станциях:

Погода в Fadnoune (Алжир) (79 км)
Погода в Bordj Haous (Алжир) (186 км)
Погода в In Amenas (Алжир) (210 км)
Погода в Tin Fouye (Алжир) (231 км)
Погода в Djanet (Алжир) (270 км)
Погода в Tinalkoum (Алжир) (278 км)
Погода в Mertouek (Алжир) (383 км)
Погода в Rhourde-Nouss (Алжир) (396 км)
Погода в Ghadames (Ливия) (417 км)
Погода в Moulay Lachen (Алжир) (425 км)

Пояснения к столбцам:

Ветер - указаны скорость ветра в м/с - средняя за 10 мин, порывы в срок и между сроками (в фигурных скобках) и направление, откуда дует ветер: С - северный, СВ - северо-восточный, В - восточный, ЮВ - юго-восточный, Ю - южный, ЮЗ - юго-западный, З - западный, СЗ - северо-западный.
Видимость - горизонтальная дальность видимости в метрах или километрах. При видимости от 1 до 10 км при отсутствии осадков обычно наблюдается дымка, при ухудшении видимости до 1 км и менее - туман. В сухую погоду видимость может ухудшаться дымом, пылью или мглою.
Явления - указаны атмосферные явления, наблюдавшиеся в срок или в последний час перед сроком; фигурными скобками обозначены явления, наблюдавшиеся между сроками (за 1-3 часа до срока); квадратными скобками обозначены град или гололедные отложения с указанием их диаметра в мм.
Облачность - указаны через наклонную черту общая и нижняя облачность в баллах и высота нижней границы облаков в метрах; квадратными скобками обозначены формы облаков: Ci - перистые, Cs - перисто-слоистые, Cc - перисто-кучевые, Ac - высококучевые, As - высокослоистые, Sc - слоисто-кучевые, Ns - слоисто-дождевые, Cu - кучевые, Cb - кучево-дождевые. Подробнее классификацию облаков см. в Атласе облаков (PDF).
T - Температура воздуха - температура, измеренная на высоте 2 м над землей.
Td - Температура точки росы - температура, при понижении до которой содержащийся в воздухе водяной пар достигнет насыщения.
f - Относительная влажность воздуха - влажноcть воздуха, измеренная на высоте 2 м над землей.
Te - Эффективная температура - температура, которую ощущает одетый по сезону человек в тени. Характеристика душности погоды. При расчете учитывается влияние влажности воздуха и скорости ветра на теплоощущения человека.
Tes - Эффективная температура на солнце - температура, которую ощущает человек, с поправкой на солнечный нагрев. Характеристика знойности погоды. Зависит от высоты солнца над горизонтом, облачности и скорости ветра. Ночью, в пасмурную погоду, а также при ветре 12 м/с и более поправка равна нулю.
P - Атмосферное давление - приведенное к уровню моря атмосферное давление.
Po - Атмосферное давление - измеренное на уровне метеостанции атмосферное давление.
Tmin - Минимальная температура - минимум температуры воздуха на высоте 2 м над землей.
Tmax - Максимальная температура - максимум температуры воздуха на высоте 2 м над землей.
R - Количество осадков - Количество выпавших осадков за период времени, мм. При наведении курсора мыши на число - период времени, за который выпало указанное количество осадков.
R24 - Количество осадков - Количество выпавших осадков за 24 часа, мм.
S - Снежный покров - Высота снежного покрова, см. При наведении курсора мыши на число - состояние снежного покрова и степень покрытия местности в баллах.